Location: *
(51.4660°N, 0.3360°W)
Time: 03:58:32
(UTC+00:00)

Cosmos 1626 - Pass Details

Date: 19 September 2019
Orbit: 493 x 495 km, 82.5° (Epoch: 17 October)

Event Time Altitude Azimuth Distance (km) Brightness Sun altitude
Rises 20:28:37 0° 354° (N) 2,591 6.3 -21.6°
Reaches altitude 10° 20:30:50 10° 2° (N) 1,704 5.2 -21.9°
Enters shadow 20:33:13 31° 30° (NNE) 885 3.3 -22.2°
